Notices

What's New in latest Release from April 7th, 2021:

- Updated Glossary, including Speed of Maximum Gust, and Total Hourly Precipitation

- Updated national and regional climate services offices contacts and prices information

- Addition of station inventory lists for 1981-2010, 1971-2000, and 1961-1990 Normals.

If you haven't already, please take our survey and provide feedback about our website: https://eccc.sondage-survey.ca/f/LanguageSelection.aspx?s=442ca660-fcf1-47c0-95a9-59707d6fd709

Hourly Data Report for October 25, 2019

CORAL HARBOUR A
NUNAVUT
Current Station Operator: NAVCAN

64°11'36.000" N
83°21'34.000" W
62.20 m
2301002
71915
YZS

Download Data

Hourly Data (October 2019)
Hourly Data Report for October 25, 2019
TIME
LST
Temp Definition
°C
Dew Point Definition
°C
Rel Hum Definition
%
Precip. Amount Definition
mm

Wind Dir Definition
10's deg

Wind Spd Definition
km/h
Visibility Definition
km
Stn Press Definition
kPa
Hmdx Definition


Wind Chill Definition


Weather Definition


00:00 -3.4 -5.2 87   36 42 19.3 99.03   -12 Snow,Blowing Snow
01:00 -3.6 -5.4 87   36 41 19.3 99.07   -12 Snow,Blowing Snow
02:00 -3.8 -5.6 87   35 41 24.1 99.12   -13 Snow,Blowing Snow
03:00 -3.8 -5.6 87   35 40 24.1 99.19   -12 Snow,Blowing Snow
04:00 -4.0 -6.0 86   36 44 24.1 99.21   -13 Snow,Blowing Snow
05:00 -4.3 -6.5 85   36 42 24.1 99.25   -13 Snow,Blowing Snow
06:00 -4.4 -6.5 85   36 36 24.1 99.31   -13 Snow,Blowing Snow
07:00 -5.0 -7.2 85   35 35 24.1 99.37   -14 Mainly Clear
08:00 -5.5 -7.5 86   36 32 24.1 99.40   -14 LegendNANA
09:00 -5.3 -7.4 85   35 36 24.1 99.40   -14 LegendNANA
10:00 -4.7 -7.3 82   36 27 24.1 99.46   -12 Mostly Cloudy
11:00 -3.9 -6.9 80   36 27 24.1 99.49   -11 LegendNANA
12:00 -4.0 -7.0 80   36 28 24.1 99.51   -11 LegendNANA
13:00 -4.1 -7.0 80   35 26 24.1 99.55   -11 Mostly Cloudy
14:00 -4.1 -7.1 80   35 16 24.1 99.62   -10 LegendNANA
15:00 -4.1 -7.4 78   32 9 24.1 99.70   -8 LegendNANA
16:00 -4.0 -7.3 78   2 28 24.1 99.71   -11 Mostly Cloudy
17:00 -4.5 -7.6 79   36 19 24.1 99.78   -11 LegendNANA
18:00 -4.5 -7.5 79   1 21 24.1 99.84   -11 LegendNANA
19:00 -4.7 -7.6 80   2 24 24.1 99.86   -12 Mostly Cloudy
20:00 -4.3 -7.1 81   2 35 24.1 99.91   -13 LegendNANA
21:00 -4.2 -7.1 81   2 25 24.1 99.94   -11 LegendNANA
22:00 -4.8 -7.3 83   1 14 24.1 99.98   -10 Mainly Clear
23:00 -4.8 -7.3 82   1 16 24.1 99.99   -11 LegendNANA

Notes on Data Quality.

Legend

  • E = Estimated
  • M = Missing
  • NA = Not Available*
  • [empty] = Indicates an unobserved value
Date modified: